Simultaneous Nadir Overpasses (SNOs) Predictions

Prediction of SNOs between FY3D and TERRA Satellite Orbit:

Table of predicted SNOs for the next 14.0 days since TLE Epoch: 5/20/2023
Index Date (FY3D) Time (FY3D) Lat,Lon (FY3D) SZA (FY3D ) Date (TERRA) Time (TERRA) Lat,Lon (TERRA) SZA (TERRA ) Distance(km) Time Diff (sec)
1 05/22/2023 13:22:07 73.43, -20.66 52.94 05/22/2023 13:22:48 73.43, -20.67 52.93 0.49 41
2 05/22/2023 14:12:51 -73.37, 146.78 127.13 05/22/2023 14:12:12 -73.37, 146.88 127.13 3.06 39
3 05/25/2023 01:26:10 -73.43, -21.63 127.54 05/25/2023 01:26:52 -73.42, -21.72 127.55 2.70 42
4 05/25/2023 02:16:55 73.37, 145.81 52.40 05/25/2023 02:16:14 73.39, 145.88 52.42 3.23 41
5 05/27/2023 13:30:14 73.44, -22.63 52.03 05/27/2023 13:30:53 73.46, -22.67 52.06 3.11 39
6 05/27/2023 14:20:58 -73.37, 144.83 128.04 05/27/2023 14:20:18 -73.37, 144.79 128.05 1.22 40
7 05/30/2023 01:34:18 -73.48, -23.73 128.32 05/30/2023 01:34:56 -73.47, -23.68 128.33 1.93 38
8 05/30/2023 02:25:02 73.39, 143.81 51.58 05/30/2023 02:24:19 73.38, 143.78 51.57 1.63 43
9 06/01/2023 13:38:21 73.46, -24.65 51.31 06/01/2023 13:38:57 73.45, -24.75 51.29 3.49 36
10 06/01/2023 14:29:05 -73.39, 142.83 128.78 06/01/2023 14:28:21 -73.42, 142.84 128.75 3.58 44



Historial Predications of SNOs between FY3D and TERRA
